METAR LSZS 151120Z VRB01KT CAVOK 06/M07 Q1025 RMK J=
Diese Daten sind ohne Gewähr und dürfen nicht für die Flugvorbereitung verwendet werden.
Information contained in this website shall not be used for flight operation purposes.